Regional Weather Roundup
Issued by NWS

Home | Current Version | Previous Version | Graphics & Text | Print | Product List | Glossary On
Versions: 1 2 3 4 5 6 7 8 9 10 11 12 13 14 15 16 17 18 19 20 21 22 23 24 25 26 27 28 29 30 31 32 33 34 35 36 37 38 39 40 41 42 43 44 45 46 47 48 49 50
000
ASUS43 KFSD 212102
RWRSD

WEATHER ROUNDUP FOR SOUTH DAKOTA
NATIONAL WEATHER SERVICE SIOUX FALLS SD
400 PM CDT MON JUL 21 2014

NOTE: "FAIR" INDICATES FEW OR NO CLOUDS BELOW 12,000 FEET WITH NO
SIGNIFICANT WEATHER AND/OR OBSTRUCTIONS TO VISIBILITY.


SDZ001>005-009-010-012>017-212200-
NORTHWEST AND NORTH CENTRAL SOUTH DAKOTA

CITY           SKY/WX    TMP DP  RH WIND       PRES   REMARKS
BUFFALO          N/A     89  53  29 W24G33    29.79R
FAITH            N/A     95  60  31 W20G31    29.78R HX  95
MOBRIDGE       SUNNY     91  76  61 S13       29.68F HX 103
$$

SDZ012>016-024>037-041>051-057-063-072>074-212200-
SOUTHWEST AND SOUTH CENTRAL SOUTH DAKOTA

CITY           SKY/WX    TMP DP  RH WIND       PRES   REMARKS
RAPID CTY ARPT MOSUNNY   91  58  32 E6        29.86F
PIERRE         SUNNY    103  62  26 NW16G25   29.70R HX 105
CUSTER         MOSUNNY   90  40  17 W16G25    30.07R
ELLSWORTH AFB  MOSUNNY   94  55  26 SW6       29.86S
PHILIP         SUNNY    102  52  18 W20       29.77S HX  99
PINE RIDGE     SUNNY     97  51  21 W12G20    29.90F
WINNER         FAIR     108  48  13 W17G30    29.76S HX 104
$$

SDZ004>011-016>023-039-040-212200-
NORTHEAST SOUTH DAKOTA

CITY           SKY/WX    TMP DP  RH WIND       PRES   REMARKS
ABERDEEN       PTSUNNY   88  76  67 S18G29    29.72R HX  99
WATERTOWN      CLOUDY    84  75  74 S17       29.81F
SISSETON         N/A     85  78  80 S17G25    29.72F HX  96
$$

SDZ017-020-022-023-036>040-048>070-212200-
SOUTHEAST SOUTH DAKOTA

CITY           SKY/WX    TMP DP  RH WIND       PRES   REMARKS
SIOUX FALLS    CLOUDY    85  76  74 SE15      29.81F
HURON          MOSUNNY   89  76  65 SE14G24   29.73S HX 100
CHAMBERLAIN    SUNNY    101  67  32 S8        29.72F HX 106
MITCHELL       PTSUNNY   92  79  65 SE18      29.75F HX 108
YANKTON        PTSUNNY   90  79  70 S7        29.79S HX 105
$$

ABBREVIATIONS USED IN REMARKS
   TC - TEMPERATURE IN CELSIUS
  WCI - WIND CHILL INDEX
   HX - HEAT INDEX
  VSB - VISIBILITY




USA.gov is the U.S. government's official web portal to all federal, state and local government web resources and services.